TimeCST,TemperatureF,Dew PointF,Humidity,Sea Level PressureIn,VisibilityMPH,Wind Direction,Wind SpeedMPH,Gust SpeedMPH,PrecipitationIn,Events,Conditions,WindDirDegrees,DateUTC
12:15 AM,10.2,1.4,68,30.62,10.0,NNW,8.1,-,N/A,,Scattered Clouds,330,2013-11-23 06:15:00
12:35 AM,10.0,1.8,69,30.62,10.0,NNW,10.4,18.4,N/A,,Scattered Clouds,330,2013-11-23 06:35:00
12:55 AM,9.9,1.8,70,30.63,10.0,NNW,10.4,16.1,N/A,,Mostly Cloudy,330,2013-11-23 06:55:00
1:15 AM,9.5,1.9,71,30.64,10.0,NW,8.1,17.3,N/A,,Mostly Cloudy,320,2013-11-23 07:15:00
1:35 AM,9.3,2.1,73,30.64,10.0,NNW,9.2,-,N/A,,Scattered Clouds,330,2013-11-23 07:35:00
1:55 AM,9.3,2.3,73,30.65,10.0,NNW,10.4,16.1,N/A,,Mostly Cloudy,330,2013-11-23 07:55:00
2:15 AM,9.1,2.3,74,30.66,10.0,NNW,8.1,-,N/A,,Mostly Cloudy,330,2013-11-23 08:15:00
2:35 AM,9.1,2.3,74,30.67,10.0,NNW,9.2,16.1,N/A,,Mostly Cloudy,330,2013-11-23 08:35:00
2:55 AM,8.8,2.3,75,30.67,10.0,NNW,9.2,-,N/A,,Mostly Cloudy,330,2013-11-23 08:55:00
3:15 AM,9.0,2.1,74,30.68,10.0,NNW,10.4,16.1,N/A,,Mostly Cloudy,340,2013-11-23 09:15:00
3:35 AM,8.6,1.9,74,30.69,10.0,NNW,8.1,-,N/A,,Mostly Cloudy,340,2013-11-23 09:35:00
3:55 AM,8.6,1.8,74,30.70,10.0,NNW,11.5,18.4,N/A,,Mostly Cloudy,340,2013-11-23 09:55:00
4:15 AM,8.6,1.4,73,30.70,10.0,NNW,12.7,18.4,N/A,,Scattered Clouds,330,2013-11-23 10:15:00
4:34 AM,8.4,1.4,73,30.71,10.0,NNW,12.7,19.6,N/A,,Mostly Cloudy,340,2013-11-23 10:34:00
4:55 AM,8.2,1.4,74,30.71,10.0,NNW,12.7,16.1,N/A,,Mostly Cloudy,330,2013-11-23 10:55:00
5:15 AM,8.1,1.2,74,30.72,10.0,NNW,8.1,-,N/A,,Mostly Cloudy,330,2013-11-23 11:15:00
5:35 AM,8.1,1.2,74,30.72,10.0,NNW,8.1,17.3,N/A,,Mostly Cloudy,340,2013-11-23 11:35:00
5:55 AM,7.7,0.9,74,30.72,10.0,NNW,9.2,-,N/A,,Mostly Cloudy,340,2013-11-23 11:55:00
6:15 AM,7.5,0.7,74,30.73,10.0,NNW,6.9,-,N/A,,Mostly Cloudy,340,2013-11-23 12:15:00
6:35 AM,7.5,1.0,75,30.73,10.0,NNW,5.8,-,N/A,,Mostly Cloudy,340,2013-11-23 12:35:00
6:55 AM,7.5,0.9,74,30.74,10.0,NNW,10.4,-,N/A,,Mostly Cloudy,330,2013-11-23 12:55:00
7:15 AM,7.5,1.0,75,30.75,10.0,NNW,9.2,16.1,N/A,,Mostly Cloudy,340,2013-11-23 13:15:00
7:35 AM,7.3,0.9,75,30.76,10.0,NNW,6.9,-,N/A,,Scattered Clouds,330,2013-11-23 13:35:00
7:55 AM,7.7,1.4,75,30.77,10.0,NW,9.2,-,N/A,,Scattered Clouds,320,2013-11-23 13:55:00
8:14 AM,8.2,1.8,75,30.78,10.0,NW,6.9,-,N/A,,Scattered Clouds,320,2013-11-23 14:14:00
8:35 AM,8.8,2.1,74,30.79,10.0,NW,8.1,-,N/A,,Scattered Clouds,310,2013-11-23 14:35:00
8:55 AM,9.5,2.3,73,30.79,10.0,NNW,8.1,-,N/A,,Clear,330,2013-11-23 14:55:00
9:14 AM,10.4,2.1,69,30.80,10.0,NW,8.1,-,N/A,,Clear,320,2013-11-23 15:14:00
9:35 AM,10.8,1.8,67,30.80,10.0,NW,9.2,-,N/A,,Scattered Clouds,320,2013-11-23 15:35:00
9:55 AM,11.3,1.6,65,30.80,10.0,NNW,5.8,-,N/A,,Scattered Clouds,330,2013-11-23 15:55:00
10:14 AM,12.2,1.4,62,30.81,10.0,NW,5.8,-,N/A,,Scattered Clouds,320,2013-11-23 16:14:00
10:35 AM,13.1,1.8,61,30.80,10.0,WNW,9.2,-,N/A,,Scattered Clouds,300,2013-11-23 16:35:00
10:55 AM,13.5,1.8,60,30.80,10.0,NW,6.9,-,N/A,,Scattered Clouds,310,2013-11-23 16:55:00
11:15 AM,14.0,1.0,56,30.79,10.0,NW,9.2,-,N/A,,Scattered Clouds,310,2013-11-23 17:15:00
11:35 AM,14.9,1.9,57,30.79,10.0,WNW,5.8,-,N/A,,Scattered Clouds,290,2013-11-23 17:35:00
11:55 AM,15.3,1.6,55,30.78,10.0,NW,9.2,-,N/A,,Scattered Clouds,310,2013-11-23 17:55:00
12:15 PM,15.3,0.9,53,30.77,10.0,NNW,4.6,-,N/A,,Clear,330,2013-11-23 18:15:00
12:35 PM,15.8,0.7,51,30.76,10.0,NW,6.9,-,N/A,,Clear,320,2013-11-23 18:35:00
12:55 PM,17.1,1.6,51,30.76,10.0,NW,6.9,-,N/A,,Clear,320,2013-11-23 18:55:00
1:15 PM,17.2,1.8,51,30.76,10.0,WNW,9.2,-,N/A,,Clear,290,2013-11-23 19:15:00
1:35 PM,17.1,0.5,48,30.76,10.0,NW,10.4,16.1,N/A,,Clear,310,2013-11-23 19:35:00
1:55 PM,17.4,1.2,49,30.76,10.0,WNW,5.8,-,N/A,,Clear,300,2013-11-23 19:55:00
2:15 PM,17.6,1.6,50,30.75,10.0,NW,9.2,-,N/A,,Clear,320,2013-11-23 20:15:00
2:35 PM,17.4,1.9,51,30.75,10.0,WNW,8.1,-,N/A,,Clear,290,2013-11-23 20:35:00
2:55 PM,17.1,2.1,52,30.74,10.0,WNW,9.2,-,N/A,,Clear,290,2013-11-23 20:55:00
3:15 PM,16.5,0.1,49,30.74,10.0,NW,8.1,-,N/A,,Clear,310,2013-11-23 21:15:00
3:35 PM,15.8,-1.5,47,30.74,10.0,NW,6.9,-,N/A,,Clear,320,2013-11-23 21:35:00
3:55 PM,15.4,-2.0,46,30.74,10.0,NNW,6.9,-,N/A,,Clear,330,2013-11-23 21:55:00
4:15 PM,14.7,-1.8,48,30.74,10.0,NW,4.6,-,N/A,,Clear,310,2013-11-23 22:15:00
4:35 PM,13.6,-1.5,51,30.74,10.0,NNW,3.5,-,N/A,,Clear,330,2013-11-23 22:35:00
4:55 PM,12.9,-1.3,53,30.74,10.0,Calm,Calm,-,N/A,,Clear,0,2013-11-23 22:55:00
5:15 PM,11.3,-1.3,57,30.73,10.0,Calm,Calm,-,N/A,,Clear,0,2013-11-23 23:15:00
5:35 PM,10.4,-1.1,60,30.73,10.0,NW,3.5,-,N/A,,Clear,310,2013-11-23 23:35:00
5:55 PM,10.4,-0.8,61,30.73,10.0,Calm,Calm,-,N/A,,Clear,0,2013-11-23 23:55:00
6:15 PM,9.7,-0.9,62,30.73,10.0,Calm,Calm,-,N/A,,Clear,0,2013-11-24 00:15:00
6:35 PM,8.4,-0.8,66,30.73,10.0,Calm,Calm,-,N/A,,Clear,0,2013-11-24 00:35:00
6:55 PM,7.7,-0.4,70,30.73,10.0,Calm,Calm,-,N/A,,Clear,0,2013-11-24 00:55:00
7:15 PM,7.9,-1.1,67,30.73,10.0,Calm,Calm,-,N/A,,Clear,0,2013-11-24 01:15:00
7:35 PM,7.7,-1.7,66,30.73,10.0,Calm,Calm,-,N/A,,Clear,0,2013-11-24 01:35:00
7:55 PM,6.3,-1.8,69,30.73,10.0,West,3.5,-,N/A,,Clear,280,2013-11-24 01:55:00
8:15 PM,7.5,-1.8,66,30.72,10.0,Calm,Calm,-,N/A,,Clear,0,2013-11-24 02:15:00
8:35 PM,7.3,-1.5,67,30.72,10.0,Calm,Calm,-,N/A,,Clear,0,2013-11-24 02:35:00
8:55 PM,5.9,-2.2,69,30.72,10.0,Calm,Calm,-,N/A,,Clear,0,2013-11-24 02:55:00
9:15 PM,5.0,-2.0,73,30.71,10.0,Calm,Calm,-,N/A,,Scattered Clouds,0,2013-11-24 03:15:00
9:35 PM,3.9,-3.3,72,30.71,10.0,Calm,Calm,-,N/A,,Scattered Clouds,0,2013-11-24 03:35:00
9:55 PM,4.3,-1.3,78,30.70,10.0,Calm,Calm,-,N/A,,Clear,0,2013-11-24 03:55:00
10:15 PM,5.2,-1.1,75,30.70,10.0,Calm,Calm,-,N/A,,Scattered Clouds,0,2013-11-24 04:15:00
10:35 PM,3.0,-2.7,77,30.69,10.0,Calm,Calm,-,N/A,,Scattered Clouds,0,2013-11-24 04:35:00
10:55 PM,3.7,-0.8,82,30.69,10.0,Calm,Calm,-,N/A,,Scattered Clouds,0,2013-11-24 04:55:00
11:15 PM,3.2,-1.3,82,30.68,10.0,Calm,Calm,-,N/A,,Scattered Clouds,0,2013-11-24 05:15:00
11:35 PM,5.0,-0.4,78,30.68,10.0,SW,3.5,-,N/A,,Scattered Clouds,230,2013-11-24 05:35:00
11:55 PM,4.6,-0.8,78,30.68,10.0,Calm,Calm,-,N/A,,Scattered Clouds,0,2013-11-24 05:55:00